{"data":{"norad_id":64907,"epoch":"2026-09-20T02:06:56.525472Z","epoch_age_seconds":159769,"freshness":"FRESH","line1":"1 64907U 25157D   26263.08815423  .00016068  00000+0  48557-3 0  9998","line2":"2 64907  53.1573 157.9905 0001092  93.5251 266.5877 15.34407219 65957","mean_motion":15.34407219,"eccentricity":0.0001092,"inclination_deg":53.1573,"raan_deg":157.9905,"arg_perigee_deg":93.5251,"mean_anomaly_deg":266.5877,"bstar":0.00048557,"rev_number":6595,"period_min":93.847316551239,"perigee_km":461.93476649069,"apogee_km":463.42880131309,"semimajor_km":6840.8187839019,"source":"CELESTRAK","updated_at":"2026-09-21T09:00:35.454197Z"}}